User: anonymous   Login
Location: Newark
(48.9320°N, 2.2664°E)
Time: 18:43:50
(UTC+00:00)
Language:

Explorer 7 - Orbit

View from above orbital plane
View from above orbital plane
View from above satellite
View from above satellite

Ground track
Ground track

The orbit data is extracted from the following two-line orbital elements,

1    22U 59009A   20047.45564153 -.00000035 +00000-0 +20773-4 0  9995
2    22 050.2846 314.4442 0139685 152.6402 208.1990 14.95038634207073
Epoch (UTC): 16 February 2020 10:56:07
Eccentricity: 0.0139685
inclination: 50.2846°
perigee height: 485 km
apogee height: 679 km
right ascension of ascending node: 314.4442°
argument of perigee: 152.6402°
revolutions per day: 14.95038634
mean anomaly at epoch: 208.1990°
orbit number at epoch: 20707

The dashed part of the orbit path shows where the satellite is in the earth's shadow,  

DLR